Live Position
Loading 3D Globe...
About Fourier
Group: 3 satellites
Description loading...
Upcoming Passes
Passes for default location (London). Set your location on the main map for personalized predictions.
Altitude History
Loading altitude history...
No altitude history available
Two-Line Element Set
1 65298U 25185B 26104.19875508 .00004777 00000-0 66568-3 0 9996
2 65298 97.9627 188.2270 0010772 272.7131 87.2847 14.78170540 34381
Epoch: Apr 14, 2026 •
Age: 10 hours
Current Status
Altitude 655.6 km
Velocity 7.53 km/s
Sub-Earth Point 77.60°N,
83.4°E
Launch Date Aug 23, 2025
Age 0.6 years
Type other
Technical Details
Classification Payload
Mass 30.00 kg
Dry Mass 30.00 kg
Total Mass 30.00 kg
Length 0.60 m
Diameter 0.40 m
Span 2.00 m
Shape Box+ pan
Manufacturer ESPACE
Bus Type Calistus
Phase Status In Orbit
Owner/State ESPACE/RW
Most Searched
Loading...